Tracking 27126 objects as of 30-Mar-2023
HD Live streaming from Space Station
objects crossing your sky now

COSMOS 637

Track COSMOS 637 now!
COSMOS 637 is classified as:


NORAD ID: 7229
Int'l Code: 1974-017A
Perigee: 35,490.1 km
Apogee: 35,814.9 km
Inclination: 3.8 °
Period: 1,428.9 minutes
Semi major axis: 42023 km
RCS: 2.5118 m2 (large)
Launch date: March 26, 1974
Source: Commonwealth of Independent States (former USSR) (CIS)
Launch site: TYURATAM MISSILE AND SPACE COMPLEX (TTMTR)
Your satellite tracking list
Your tracking list is empty




NASA's NSSDC Master Catalog

Two Line Element Set (TLE):
1 07229U 74017A   23088.86491686  .00000136  00000-0  00000-0 0  9998
2 07229   3.8414 279.7408 0038645  33.7567 207.8348  1.00777728110357
Source of the keplerian elements: AFSPC